�N����,����,�~����,�C��,���x,�C��,����,���ϕ���,�ő�u�ԕ���,�ő厞����,���˗�,�I�_���x,�n�����x,�ő啗���N��,DTYPE
"20/07/12","00:10",0.0,24.4,94.5,1001.2,338.5,1.0,1.4,351.8,0.00,23.5,25.1,"00:08:00",1
"20/07/12","00:20",0.0,24.4,94.6,1001.7,326.4,1.2,1.8,321.4,0.00,23.5,25.0,"00:19:04",1
"20/07/12","00:30",0.0,24.3,94.6,1001.2,274.4,0.3,1.3,337.1,0.00,23.4,25.1,"00:20:24",1
"20/07/12","00:40",0.0,24.3,94.8,1001.2,234.2,0.5,1.1,224.9,0.00,23.5,25.0,"00:30:02",1
"20/07/12","00:50",0.0,24.3,94.7,1001.2,256.6,0.6,1.7,241.2,0.00,23.4,24.9,"00:40:32",1
"20/07/12","01:00",0.0,24.3,94.8,1000.8,329.1,1.0,1.9,343.0,0.00,23.5,25.0,"00:56:32",1
"20/07/12","01:10",0.0,24.2,94.8,1001.0,339.7,1.0,1.8,343.0,0.00,23.4,25.0,"01:00:32",1
"20/07/12","01:20",0.0,24.1,94.9,1001.0,342.2,1.0,1.6,332.2,0.00,23.3,25.1,"01:10:56",1
"20/07/12","01:30",0.0,24.1,94.9,1001.0,327.6,1.1,1.7,353.2,0.00,23.3,24.8,"01:23:20",1
"20/07/12","01:40",0.0,24.1,95.0,1001.0,274.0,0.7,1.2,299.1,0.00,23.3,24.9,"01:37:28",1
"20/07/12","01:50",0.0,24.0,95.1,1001.2,290.7,1.1,1.8,241.7,0.00,23.2,24.9,"01:43:04",1
"20/07/12","02:00",0.0,23.8,95.1,1000.8,331.3,0.8,1.3,328.2,0.00,23.0,24.7,"01:52:08",1
"20/07/12","02:10",0.0,23.6,95.2,1001.2,291.0,0.8,1.1,298.8,0.00,22.8,25.0,"02:00:08",1
"20/07/12","02:20",0.0,23.6,95.2,1001.2,314.6,1.0,1.4,325.5,0.00,22.8,24.8,"02:14:56",1
"20/07/12","02:30",0.0,23.5,95.3,1001.2,311.1,0.7,1.3,319.6,0.00,22.7,24.6,"02:28:56",1
"20/07/12","02:40",0.0,23.6,95.4,1001.0,333.2,0.7,1.6,349.2,0.00,22.9,24.8,"02:39:52",1
"20/07/12","02:50",0.0,23.5,95.4,1000.8,319.5,1.3,1.9,319.4,0.00,22.8,24.8,"02:47:12",1
"20/07/12","03:00",0.0,23.4,95.4,1001.2,308.3,1.0,1.3,308.5,0.00,22.7,24.7,"02:53:04",1
"20/07/12","03:10",0.0,23.5,95.5,1001.5,279.7,0.8,1.3,315.8,0.00,22.8,24.9,"03:09:52",1
"20/07/12","03:20",0.0,23.5,95.5,1001.2,299.9,1.2,1.7,328.9,0.00,22.8,24.5,"03:11:04",1
"20/07/12","03:30",0.0,23.5,95.5,1001.2,325.9,1.0,1.7,343.3,0.00,22.8,24.7,"03:26:08",1
"20/07/12","03:40",0.0,23.5,95.6,1001.5,310.7,1.1,1.6,319.0,0.00,22.8,24.7,"03:37:12",1
"20/07/12","03:50",0.0,23.5,95.6,1001.5,322.0,1.1,1.6,311.3,0.00,22.8,24.6,"03:42:16",1
"20/07/12","04:00",0.0,23.5,95.6,1002.2,298.4,1.0,1.7,339.7,0.00,22.8,24.6,"03:52:32",1
"20/07/12","04:10",0.0,23.3,95.6,1001.7,298.9,1.3,2.6,258.5,0.00,22.6,24.5,"04:05:44",1
"20/07/12","04:20",0.0,22.8,95.8,1001.5,310.2,1.7,2.8,333.0,0.00,22.1,24.4,"04:19:44",1
"20/07/12","04:30",0.0,22.6,95.8,1001.9,323.3,2.3,3.7,328.3,0.00,21.9,24.5,"04:22:08",1
"20/07/12","04:40",0.0,22.5,95.6,1002.2,323.4,2.6,4.5,340.3,0.00,21.8,24.6,"04:39:04",1
"20/07/12","04:50",0.0,22.6,95.2,1002.2,321.4,2.5,4.4,332.2,0.00,21.8,24.4,"04:45:52",1
"20/07/12","05:00",0.0,22.3,94.6,1002.6,322.9,3.2,6.5,324.0,0.00,21.4,24.4,"04:54:16",1
"20/07/12","05:10",0.0,22.5,94.0,1002.6,284.4,2.1,4.7,311.9,0.00,21.5,24.3,"05:00:32",1
"20/07/12","05:20",0.0,22.6,93.4,1002.6,284.1,2.1,3.7,321.4,0.00,21.5,24.3,"05:16:56",1
"20/07/12","05:30",0.0,22.8,92.8,1002.6,295.0,1.7,2.7,321.5,0.00,21.6,24.1,"05:27:52",1
"20/07/12","05:40",0.0,22.9,92.2,1002.9,306.9,1.7,3.5,328.0,0.00,21.6,24.2,"05:34:24",1
"20/07/12","05:50",0.0,23.1,91.3,1002.4,307.1,1.7,3.5,334.1,0.01,21.6,24.4,"05:43:36",1
"20/07/12","06:00",0.0,23.2,90.3,1002.6,295.6,1.5,2.7,323.1,0.02,21.6,24.2,"05:51:44",1
"20/07/12","06:10",0.0,23.3,89.2,1002.6,285.7,1.3,3.7,251.1,0.02,21.5,24.0,"06:09:28",1
"20/07/12","06:20",0.0,23.2,88.1,1002.6,300.6,2.1,4.2,263.2,0.01,21.2,24.0,"06:10:16",1
"20/07/12","06:30",0.0,23.4,87.3,1002.9,318.7,2.0,4.4,329.4,0.03,21.2,24.1,"06:22:16",1
"20/07/12","06:40",0.0,23.4,86.8,1002.9,312.9,2.0,3.5,340.8,0.04,21.1,24.2,"06:34:08",1
"20/07/12","06:50",0.0,23.4,86.2,1003.1,289.3,1.5,2.9,313.7,0.04,21.0,24.0,"06:43:28",1
"20/07/12","07:00",0.0,23.4,85.8,1003.1,294.2,1.6,3.5,285.0,0.04,20.9,24.0,"06:54:40",1
"20/07/12","07:10",0.0,23.6,85.5,1003.1,298.5,1.2,3.9,315.2,0.06,21.1,24.0,"07:08:32",1
"20/07/12","07:20",0.0,23.6,85.1,1003.1,284.4,1.5,3.2,346.5,0.07,21.0,23.9,"07:12:32",1
"20/07/12","07:30",0.0,23.6,84.8,1002.9,296.4,1.5,2.7,267.1,0.05,20.9,24.2,"07:20:24",1
"20/07/12","07:40",0.0,23.7,84.6,1003.1,291.7,1.6,2.8,304.6,0.06,21.0,24.0,"07:32:00",1
"20/07/12","07:50",0.0,23.7,84.7,1003.1,302.7,1.6,4.8,321.7,0.07,21.0,24.0,"07:46:16",1
"20/07/12","08:00",0.0,23.9,84.3,1003.1,319.4,1.5,2.8,339.6,0.09,21.1,24.1,"07:55:20",1
"20/07/12","08:10",0.0,23.9,84.3,1003.4,300.8,1.5,3.2,343.8,0.06,21.1,24.0,"08:08:40",1
"20/07/12","08:20",0.0,24.0,84.1,1003.1,308.3,1.2,3.2,331.7,0.07,21.2,24.3,"08:12:24",1
"20/07/12","08:30",0.0,24.2,83.8,1003.1,315.8,1.3,2.9,335.0,0.12,21.3,24.3,"08:29:20",1
"20/07/12","08:40",0.0,24.5,83.2,1002.9,296.3,1.2,2.7,1.9,0.13,21.5,24.2,"08:34:16",1
"20/07/12","08:50",0.0,24.9,82.5,1002.9,294.5,0.8,2.9,329.4,0.11,21.8,24.2,"08:43:12",1
"20/07/12","09:00",0.0,25.0,81.4,1003.1,304.3,1.0,2.2,315.4,0.11,21.6,24.5,"08:55:04",1
"20/07/12","09:10",0.0,25.3,80.5,1002.9,293.6,0.8,1.7,312.3,0.13,21.7,24.4,"09:00:56",1
"20/07/12","09:20",0.0,25.6,80.1,1002.6,308.5,0.8,2.5,338.6,0.19,22.0,24.5,"09:15:12",1
"20/07/12","09:30",0.0,25.7,78.3,1003.1,279.5,1.0,2.2,241.6,0.19,21.7,24.7,"09:24:40",1
"20/07/12","09:40",0.0,26.1,77.8,1002.9,304.1,1.1,2.2,322.9,0.29,22.0,24.7,"09:34:24",1
"20/07/12","09:50",0.0,26.5,75.6,1002.4,316.9,1.0,2.0,351.2,0.35,21.9,25.0,"09:41:52",1
"20/07/12","10:00",0.0,26.8,74.2,1002.2,273.8,1.0,2.5,276.5,0.37,21.9,25.1,"09:59:36",1
"20/07/12","10:10",0.0,26.5,73.1,1002.2,301.1,1.2,3.9,354.2,0.25,21.3,25.1,"10:09:36",1
"20/07/12","10:20",0.0,25.9,74.7,1001.9,300.9,1.3,3.3,341.8,0.11,21.1,25.2,"10:12:16",1
"20/07/12","10:30",0.0,25.8,76.3,1002.2,287.4,1.3,4.5,314.7,0.24,21.4,25.3,"10:29:28",1
"20/07/12","10:40",0.0,26.5,75.8,1001.5,336.5,2.1,5.5,349.0,0.37,21.9,25.4,"10:31:44",1
"20/07/12","10:50",0.0,26.8,73.4,1002.2,339.1,1.1,2.5,333.1,0.26,21.7,25.6,"10:40:16",1
"20/07/12","11:00",0.0,26.3,73.4,1001.9,337.0,1.5,3.1,319.8,0.14,21.2,25.7,"10:57:44",1
"20/07/12","11:10",0.0,26.1,74.1,1001.9,0.6,2.1,4.5,344.4,0.31,21.2,25.6,"11:04:24",1
"20/07/12","11:20",0.0,25.9,74.1,1002.2,350.4,2.1,4.9,334.9,0.19,21.0,25.7,"11:16:40",1
"20/07/12","11:30",0.0,26.3,74.1,1002.2,347.3,1.8,5.1,341.1,0.30,21.4,25.7,"11:28:48",1
"20/07/12","11:40",0.0,25.8,75.2,1002.4,346.6,2.8,5.4,348.1,0.32,21.1,25.8,"11:38:32",1
"20/07/12","11:50",0.0,26.7,74.8,1001.9,348.4,2.2,5.8,342.5,0.50,21.9,26.0,"11:48:24",1
"20/07/12","12:00",0.0,26.7,72.6,1002.2,343.7,3.1,6.0,343.0,0.58,21.4,26.0,"11:56:08",1
"20/07/12","12:10",0.0,27.2,70.0,1002.4,3.7,2.1,5.0,33.4,0.53,21.3,26.2,"12:05:44",1
"20/07/12","12:20",0.0,26.8,69.9,1002.2,357.4,2.2,5.2,334.7,0.38,20.9,26.5,"12:10:32",1
"20/07/12","12:30",0.0,26.2,71.9,1002.6,349.1,2.8,7.9,345.7,0.34,20.8,26.3,"12:28:40",1
"20/07/12","12:40",0.0,26.9,71.2,1002.2,325.7,2.2,6.8,324.7,0.54,21.3,26.5,"12:31:44",1
"20/07/12","12:50",0.0,26.5,70.4,1002.4,348.4,2.3,5.0,337.7,0.24,20.7,26.5,"12:47:44",1
"20/07/12","13:00",0.0,26.7,71.6,1002.2,303.4,1.1,2.9,319.7,0.24,21.2,26.7,"12:50:02",1
"20/07/12","13:10",0.0,26.5,71.2,1002.6,319.1,1.1,3.3,331.0,0.25,20.9,26.4,"13:05:44",1
"20/07/12","13:20",0.0,27.4,70.8,1002.9,292.2,1.2,4.5,353.4,0.44,21.7,26.9,"13:19:28",1
"20/07/12","13:30",0.0,26.9,70.8,1002.6,357.8,1.5,3.4,47.9,0.27,21.2,26.9,"13:26:32",1
"20/07/12","13:40",0.0,26.7,70.3,1002.9,357.6,1.7,4.3,39.1,0.43,20.9,26.9,"13:39:04",1
"20/07/12","13:50",0.0,26.6,70.7,1002.9,354.0,1.6,3.9,36.4,0.27,20.9,27.1,"13:42:00",1
"20/07/12","14:00",0.2,26.5,71.5,1002.4,349.8,1.6,2.9,3.2,0.22,21.0,26.9,"13:50:48",1
"20/07/12","14:10",0.0,26.6,70.3,1002.2,353.5,1.5,4.0,342.7,0.23,20.8,27.0,"14:01:44",1
"20/07/12","14:20",0.0,26.1,69.6,1002.2,352.0,1.8,4.3,344.2,0.16,20.1,26.7,"14:14:08",1
"20/07/12","14:30",0.0,25.7,69.9,1002.2,345.7,2.2,4.2,339.2,0.16,19.8,27.0,"14:25:36",1
"20/07/12","14:40",0.0,25.4,70.7,1002.4,342.1,2.0,4.3,345.5,0.08,19.7,26.8,"14:36:00",1
"20/07/12","14:50",0.0,25.6,70.8,1002.6,359.8,1.7,4.2,336.2,0.17,19.9,26.6,"14:46:24",1
"20/07/12","15:00",0.0,26.1,69.0,1002.6,327.9,2.0,5.4,346.2,0.26,20.0,26.7,"14:55:12",1
"20/07/12","15:10",0.0,26.2,65.8,1002.4,349.0,2.0,4.8,343.8,0.27,19.3,26.8,"15:09:12",1
"20/07/12","15:20",0.0,25.9,64.2,1002.9,333.5,2.6,6.5,333.4,0.18,18.7,26.7,"15:17:12",1
"20/07/12","15:30",0.0,25.7,66.0,1002.9,330.7,2.7,5.6,354.0,0.16,18.9,26.7,"15:21:36",1
"20/07/12","15:40",0.0,25.8,67.3,1002.9,351.1,1.7,3.7,330.3,0.16,19.3,26.8,"15:37:20",1
"20/07/12","15:50",0.0,25.8,68.7,1002.9,352.1,1.5,3.3,345.2,0.14,19.7,26.5,"15:45:36",1
"20/07/12","16:00",0.0,25.5,69.3,1003.1,327.5,1.2,3.5,343.1,0.09,19.5,26.5,"15:58:32",1
"20/07/12","16:10",0.0,25.2,70.3,1003.1,331.6,1.7,3.1,338.9,0.06,19.4,26.5,"16:07:52",1
"20/07/12","16:20",0.0,25.0,70.8,1003.4,342.9,1.3,3.5,329.9,0.07,19.4,26.4,"16:16:32",1
"20/07/12","16:30",0.0,24.6,72.4,1003.1,352.2,1.5,3.1,338.6,0.04,19.3,26.6,"16:20:40",1
"20/07/12","16:40",0.0,24.6,72.1,1003.1,5.0,1.6,3.4,327.3,0.09,19.3,26.5,"16:34:00",1
"20/07/12","16:50",0.0,24.6,71.6,1003.4,5.8,1.3,3.5,41.3,0.09,19.2,26.4,"16:40:16",1
"20/07/12","17:00",0.0,24.4,71.5,1003.1,356.6,1.2,2.8,11.2,0.07,19.0,26.2,"16:59:28",1
"20/07/12","17:10",0.0,24.1,71.8,1003.1,2.6,1.2,3.5,359.6,0.06,18.7,26.3,"17:05:28",1
"20/07/12","17:20",0.0,24.0,71.6,1003.1,9.7,1.6,2.9,9.6,0.06,18.6,26.0,"17:18:32",1
"20/07/12","17:30",0.0,23.9,71.9,1003.1,3.7,1.6,4.4,341.3,0.05,18.6,26.1,"17:28:40",1
"20/07/12","17:40",0.0,23.7,72.1,1003.4,2.7,1.5,3.1,10.2,0.04,18.4,26.0,"17:37:12",1
"20/07/12","17:50",0.0,23.6,72.6,1003.4,351.3,1.3,2.7,348.6,0.04,18.4,25.9,"17:47:12",1
"20/07/12","18:00",0.0,23.4,73.6,1003.1,356.0,1.2,2.8,321.8,0.03,18.5,25.9,"17:56:16",1
"20/07/12","18:10",0.0,23.3,74.1,1003.8,357.0,1.0,3.2,37.0,0.02,18.5,25.7,"18:07:28",1
"20/07/12","18:20",0.0,23.2,74.6,1003.8,358.0,1.3,2.7,6.7,0.01,18.5,25.8,"18:18:24",1
"20/07/12","18:30",0.0,23.0,75.0,1004.1,349.7,1.5,3.2,355.1,0.01,18.4,25.7,"18:21:28",1
"20/07/12","18:40",0.0,22.8,75.1,1004.1,350.8,1.5,3.6,345.5,0.00,18.2,25.3,"18:30:32",1
"20/07/12","18:50",0.0,22.7,75.9,1004.1,331.6,1.1,2.0,341.6,0.00,18.3,25.6,"18:41:20",1
"20/07/12","19:00",0.0,22.4,77.1,1004.3,327.3,0.8,1.3,338.0,0.00,18.2,25.4,"18:53:04",1
"20/07/12","19:10",0.0,22.3,78.3,1004.3,339.9,0.7,1.6,330.2,0.00,18.4,25.3,"19:08:00",1
"20/07/12","19:20",0.0,22.1,79.2,1004.5,330.5,1.0,1.6,354.0,0.00,18.4,25.1,"19:10:32",1
"20/07/12","19:30",0.0,21.9,79.9,1004.8,324.2,1.1,1.8,343.6,0.00,18.3,25.1,"19:28:02",1
"20/07/12","19:40",0.0,21.7,80.8,1004.5,333.9,1.2,2.4,339.3,0.00,18.3,25.1,"19:37:20",1
"20/07/12","19:50",0.0,21.5,81.6,1004.8,329.0,1.0,2.0,341.1,0.00,18.3,24.9,"19:45:28",1
"20/07/12","20:00",0.0,21.4,82.4,1004.8,331.1,1.1,1.6,307.6,0.00,18.3,25.1,"19:52:24",1
"20/07/12","20:10",0.0,21.4,83.1,1004.5,340.7,1.0,1.4,329.5,0.00,18.5,24.9,"20:00:56",1
"20/07/12","20:20",0.0,21.1,83.7,1005.0,330.0,1.1,1.9,337.5,0.00,18.3,24.9,"20:19:20",1
"20/07/12","20:30",0.0,21.0,84.3,1005.0,337.9,1.0,2.0,336.9,0.00,18.3,24.6,"20:21:36",1
"20/07/12","20:40",0.0,20.9,84.8,1005.0,313.7,1.0,1.3,336.6,0.00,18.3,24.8,"20:31:20",1
"20/07/12","20:50",0.0,20.8,85.3,1005.2,330.5,1.0,1.8,334.0,0.00,18.3,24.6,"20:46:32",1
"20/07/12","21:00",0.0,20.6,85.7,1005.5,314.0,1.2,1.9,358.3,0.00,18.2,24.7,"20:51:04",1
"20/07/12","21:10",0.0,20.5,85.8,1005.7,317.7,1.1,2.0,327.1,0.00,18.1,24.5,"21:08:40",1
"20/07/12","21:20",0.0,20.5,85.8,1006.0,327.3,1.0,1.6,358.3,0.00,18.1,24.4,"21:12:16",1
"20/07/12","21:30",0.0,20.6,85.6,1005.7,330.9,1.2,2.4,337.6,0.00,18.1,24.5,"21:26:32",1
"20/07/12","21:40",0.0,20.5,85.6,1005.7,334.7,1.1,1.6,335.3,0.00,18.0,23.9,"21:31:04",1
"20/07/12","21:50",0.0,20.4,86.0,1006.0,332.5,1.3,2.4,337.5,0.00,18.0,24.2,"21:40:02",1
"20/07/12","22:00",0.0,20.2,86.4,1005.7,333.3,1.2,2.1,338.9,0.00,17.9,24.3,"21:58:40",1
"20/07/12","22:10",0.0,20.1,86.7,1006.2,324.9,1.5,2.1,340.3,0.00,17.9,24.0,"22:03:44",1
"20/07/12","22:20",0.0,20.0,87.0,1005.5,332.3,1.2,1.9,339.3,0.00,17.8,24.1,"22:18:32",1
"20/07/12","22:30",0.0,20.0,87.1,1005.7,328.7,0.8,1.4,334.7,0.00,17.8,24.0,"22:24:40",1
"20/07/12","22:40",0.0,20.0,87.4,1006.0,335.7,0.8,2.1,354.5,0.00,17.9,24.1,"22:38:56",1
"20/07/12","22:50",0.0,19.8,87.6,1006.0,321.5,0.8,1.3,353.2,0.00,17.7,23.8,"22:47:52",1
"20/07/12","23:00",0.0,19.6,87.9,1005.5,318.5,0.6,1.3,322.9,0.00,17.6,23.8,"22:59:44",1
"20/07/12","23:10",0.0,19.6,88.2,1005.7,312.9,1.0,2.0,330.9,0.00,17.6,23.7,"23:08:56",1
"20/07/12","23:20",0.0,19.4,88.4,1005.5,301.0,0.5,1.4,327.1,0.00,17.5,23.6,"23:10:16",1
"20/07/12","23:30",0.0,19.3,88.7,1005.5,316.4,1.1,2.4,340.8,0.00,17.4,23.7,"23:23:04",1
"20/07/12","23:40",0.0,19.3,89.1,1005.5,331.6,1.0,1.7,343.9,0.00,17.5,23.8,"23:36:32",1
"20/07/12","23:50",0.0,19.3,89.4,1005.2,317.8,1.1,2.2,347.4,0.00,17.6,23.9,"23:49:36",1
"20/07/12","24:00",0.0,19.2,89.7,1005.0,312.0,1.1,1.8,320.0,0.00,17.5,23.7,"23:50:24",1
